Rockport, TX

4:43 PM CST on December 04, 2016 (GMT -0600)
Aransas County

Weather History for KRKP - January, 2013

Change the Weather History Date:

Monday, January 7, 2013

  Actual Average Record
Temperature  
Mean Temperature 52 °F -  
Max Temperature 61 °F 62 °F 78 °F (2012)
Min Temperature 43 °F 44 °F 23 °F (1970)
Degree Days  
Heating Degree Days 13    
Growing Degree Days 2 (Base 50)    
Moisture  
Dew Point 47 °F    
Average Humidity 84    
Maximum Humidity 94    
Minimum Humidity 64    
Precipitation  
Precipitation 0.00 in - - ()
Sea Level Pressure  
Sea Level Pressure 30.17 in    
Wind  
Wind Speed 9 mph (NE)    
Max Wind Speed 14 mph    
Max Gust Speed -    
Visibility 8 miles    
Events Rain    
Averages and records for this station are not official NWS values.
T = Trace of Precipitation, MM = Missing Value Source: NWS Daily Summary

Daily Weather History Graph

Daily Weather History Graph

Search for Another Location

Airport or City:

Trip Planner

Search our weather history database for the weather conditions in past years. The results will help you decide how hot, cold, wet, or windy it might be!

Date:

Astronomy

Jan. 07, 2013 Rise Set
Actual Time 7:20 AM CST 5:48 PM CST
Civil Twilight 6:55 AM CST 6:14 PM CST
Nautical Twilight 6:26 AM CST 6:43 PM CST
Astronomical Twilight 5:57 AM CST 7:11 PM CST
Moon 2:51 AM CST (1/7) 1:56 PM CST (1/7)
Length of Visible Light 11h 18m
Length of Day
10h 27m
Waning Crescent, 22% of the Moon is Illuminated
Jan 7
Waning Crescent
Jan 11
New
Jan 18
First Quarter
Jan 26
Full
Feb 3
Last Quarter

Hourly Weather History & Observations

Time (CST) Temp. Windchill Dew Point Humidity Pressure Visibility Wind Dir Wind Speed Gust Speed Precip Events Conditions
12:53 AM 46.0 °F 42.5 °F 39.9 °F 79% 30.31 in 10.0 mi NNE 6.9 mph - N/A   Clear
1:53 AM 43.0 °F 39.5 °F 39.0 °F 86% 30.30 in 10.0 mi NE 5.8 mph - N/A   Clear
2:53 AM 44.1 °F 40.8 °F 39.9 °F 85% 30.29 in 10.0 mi NE 5.8 mph - N/A   Clear
3:53 AM 43.0 °F 39.5 °F 39.9 °F 89% 30.27 in 8.0 mi NNE 5.8 mph - N/A   Clear
4:53 AM 43.0 °F 38.2 °F 39.9 °F 89% 30.25 in 8.0 mi NNE 8.1 mph - N/A   Clear
6:53 AM 43.0 °F 38.8 °F 39.0 °F 86% 30.25 in 7.0 mi NNE 6.9 mph - N/A   Clear
7:53 AM 44.1 °F 40.1 °F 41.0 °F 89% 30.25 in 5.0 mi NE 6.9 mph - N/A   Clear
8:53 AM 48.0 °F - 43.0 °F 83% 30.26 in 7.0 mi NE 6.9 mph - N/A   Clear
9:53 AM 52.0 °F - 45.0 °F 77% 30.26 in 8.0 mi NE 10.4 mph - N/A   Clear
10:53 AM 59.0 °F - 46.9 °F 64% 30.26 in 10.0 mi NE 10.4 mph - N/A   Clear
11:53 AM 61.0 °F - 48.9 °F 64% 30.23 in 10.0 mi ENE 11.5 mph - N/A   Clear
1:53 PM 60.1 °F - 50.0 °F 69% 30.14 in 10.0 mi ENE 13.8 mph - N/A   Clear
2:53 PM 59.0 °F - 51.1 °F 75% 30.11 in 10.0 mi ENE 13.8 mph - N/A   Clear
3:53 PM 57.0 °F - 51.1 °F 81% 30.12 in 9.0 mi ENE 11.5 mph - N/A   Partly Cloudy
5:31 PM 55.4 °F - 51.8 °F 88% 30.11 in 8.0 mi ENE 9.2 mph - N/A   Overcast
5:53 PM 55.0 °F - 51.1 °F 86% 30.12 in 8.0 mi ENE 9.2 mph - N/A   Overcast
6:53 PM 55.0 °F - 52.0 °F 89% 30.11 in 8.0 mi ENE 9.2 mph - N/A   Overcast
7:01 PM 55.4 °F - 51.8 °F 88% 30.10 in 8.0 mi ENE 9.2 mph - N/A   Overcast
7:53 PM 55.0 °F - 52.0 °F 89% 30.10 in 7.0 mi NE 11.5 mph - N/A   Overcast
8:53 PM 54.0 °F - 52.0 °F 93% 30.08 in 6.0 mi ENE 13.8 mph - N/A   Overcast
9:53 PM 54.0 °F - 51.1 °F 90% 30.06 in 7.0 mi ENE 12.7 mph - N/A   Overcast
10:20 PM 53.6 °F - 51.8 °F 94% 30.05 in 7.0 mi ENE 11.5 mph - N/A   Overcast
10:53 PM 54.0 °F - 51.1 °F 90% 30.05 in 6.0 mi ENE 11.5 mph - N/A   Overcast
11:02 PM 53.6 °F - 51.8 °F 94% 30.04 in 6.0 mi ENE 11.5 mph - N/A   Overcast
11:53 PM 54.0 °F - 52.0 °F 93% 30.02 in 4.0 mi ENE 12.7 mph - 0.00 in Rain Light Rain